[[{"header":{"parameterUnit":"m.s-1","parameterCategory":1,"la1":30.2991,"la2":30.254,"lo1":-89.0895,"lo2":-89.0444,"dy":0.0017,"dx":0.0017,"nx":28,"ny":28,"refTime":"2025-05-26T09:00:00:Z","depth":0,"parameterNumber":2,"parameterNumberName":"U-component_of_WINDS"},"data":[0,0,0,0,0,0,0,0,0,0,0,0,0,0,0,0,0,0,0,0,0,0,0,0,0,0,0,0,0,0,0,0,0,0,0,0,0,0,0,0,0,0,0,0,0,0,0,0,0,0,0,0,0,0,0,0,0,0,0.7124,0.7125,0,0.717,0.7171,0.7171,0.7224,0.7224,0.7225,0.7226,0.7273,0.7273,0.7274,0,0,0,0,0,0,0,0,0,0,0,0,0,0.7081,0.7081,0.7124,0.7125,0.7125,0.717,0.7171,0.7172,0.7224,0.7224,0.7225,0.7226,0.7273,0.7273,0.7274,0,0,0,0,0,0,0,0,0,0,0,0,0,0.711,0.7081,0.7124,0.7157,0.716,0.717,0.7171,0.7172,0.7223,0.7224,0.7226,0.7227,0.7272,0.7273,0.7274,0.7255,0,0,0.7276,0.7277,0,0,0,0,0,0,0,0,0.7109,0.7112,0.7151,0.7154,0.7158,0.7192,0.7173,0.72,0.7223,0.7199,0.7226,0.7227,0.7245,0.7248,0.7254,0.7258,0.726,0.7276,0.7277,0.7277,0.7277,0,0,0,0,0,0,0,0.7106,0.711,0.7142,0.7152,0.7156,0.7169,0.7174,0.7178,0.7215,0.7201,0.7205,0.721,0.7247,0.7253,0.7256,0.726,0.7276,0.7277,0.7277,0.7278,0.7253,0.7252,0,0,0,0,0,0,0.7099,0.7108,0.7141,0.7144,0.7136,0.7169,0.7175,0.718,0.7215,0.7222,0.7209,0.7212,0.7251,0.7255,0.7258,0.724,0.7277,0.7278,0.7278,0.7254,0.7252,0.7251,0,0,0,0,0,0,0.7098,0.7102,0.7139,0.7127,0.7133,0.7168,0.7174,0.7181,0.7187,0.7221,0.7228,0.7209,0.7252,0.7256,0.7256,0.7242,0.7278,0.7279,0.7255,0.7253,0.7252,0.7203,0,0,0,0,0,0,0.7097,0.7101,0.7094,0.7126,0.7133,0.7136,0.7173,0.7181,0.7188,0.7193,0.7222,0.7228,0.7254,0.7255,0.7257,0.7244,0.728,0.7257,0.7254,0.7252,0.7206,0.7199,0.7194,0,0,0,0,0,0.7095,0.7078,0.7094,0.7098,0.7126,0.7136,0.7139,0.7169,0.7187,0.7181,0.7203,0.7227,0.7243,0.7254,0.7257,0.7244,0.7258,0.7255,0.7252,0.7208,0.7201,0.7194,0,0,0,0,0,0,0.7043,0.7083,0.7101,0.7094,0.7111,0.7144,0.7137,0.716,0.7172,0.7176,0.7212,0.7218,0.7214,0.7229,0.724,0.7229,0.7254,0.7252,0.7219,0.7212,0.7207,0.7203,0.728,0,0,0,0,0,0.7031,0.7036,0.707,0.7061,0.7069,0.7101,0.7107,0.7128,0.7147,0.7155,0.7177,0.7194,0.7204,0.7209,0.7219,0.7208,0.7216,0.72,0.7194,0.719,0.7188,0.7184,0.7178,0.7243,0.7243,0.7243,0,0,0.7006,0.7028,0.7029,0.7051,0.7067,0.7071,0.7107,0.711,0.7114,0.7155,0.7157,0.7173,0.7195,0.719,0.7189,0.7202,0.7171,0.7186,0.7182,0.7183,0.7181,0.7175,0.717,0.7241,0.7241,0.7242,0,0,0.6962,0.6979,0.6974,0.6989,0.7013,0.7035,0.7034,0.7064,0.7077,0.7079,0.711,0.7115,0.713,0.7145,0.7154,0.7117,0.7141,0.7119,0.7089,0.7086,0.7081,0.7076,0.7064,0.7059,0.7117,0.7117,0.7117,0,0.6928,0.6936,0.6968,0.697,0.6979,0.7017,0.7012,0.7025,0.7051,0.7056,0.7071,0.7091,0.7108,0.7108,0.7099,0.7105,0.7105,0.7116,0.7079,0.7075,0.7071,0.706,0.7055,0.7114,0.7114,0.7115,0.7115,0,0.6893,0.6898,0.6891,0.6916,0.6924,0.6922,0.6954,0.6959,0.698,0.7,0.7002,0.7024,0.704,0.7042,0.7061,0.7044,0.7052,0.7072,0.7098,0.7062,0.7052,0.7048,0.711,0.7111,0.7112,0.7113,0,0,0.6818,0.6861,0.6858,0.687,0.69,0.6904,0.6904,0.692,0.6924,0.694,0.6942,0.6954,0.6973,0.6984,0.7006,0.7002,0.6973,0.7023,0.7025,0.7014,0.6957,0.6942,0.6937,0.6989,0.6988,0.6988,0.6956,0,0.678,0.6783,0.6813,0.6808,0.6814,0.685,0.6851,0.6869,0.6888,0.6896,0.6917,0.6925,0.695,0.6957,0.6955,0.6977,0.6963,0.698,0.6992,0.6992,0.6986,0.6932,0.6916,0.6884,0.6952,0.6951,0.6951,0,0.6737,0.6752,0.6747,0.6778,0.6782,0.6781,0.6799,0.6806,0.6828,0.6842,0.6854,0.6879,0.6882,0.6906,0.6911,0.6922,0.6929,0.6941,0.694,0.6943,0.697,0.6934,0.6875,0.687,0.6945,0.6945,0.6946,0,0.6684,0.6703,0.6703,0.6712,0.6748,0.6747,0.6761,0.6784,0.6793,0.6808,0.6814,0.6829,0.6837,0.6849,0.6877,0.6892,0.6879,0.6906,0.6892,0.6891,0.6888,0.6888,0.683,0.6891,0.6891,0.6891,0.6891,0,0.6639,0.6635,0.668,0.668,0.6677,0.6711,0.6707,0.6725,0.6746,0.675,0.6782,0.6786,0.6823,0.6831,0.6854,0.6855,0.6858,0.6871,0.6877,0.6868,0.6867,0.6874,0.6877,0.6889,0.689,0.689,0.689,0,0.658,0.6609,0.6612,0.6646,0.6654,0.6651,0.668,0.6682,0.6703,0.6709,0.6712,0.6746,0.6757,0.6787,0.6805,0.6821,0.6816,0.6827,0.6809,0.6813,0.6798,0.68,0.6743,0.6738,0.6801,0.68,0.6799,0,0.655,0.6548,0.6582,0.6588,0.6602,0.661,0.6619,0.6652,0.666,0.6685,0.6684,0.6698,0.6711,0.6728,0.6754,0.6769,0.6781,0.676,0.6783,0.6775,0.6782,0.6782,0.6783,0.6755,0.6754,0.6754,0.6753,0,0.6494,0.6509,0.6521,0.6538,0.6548,0.6563,0.6579,0.6582,0.662,0.6627,0.6639,0.6649,0.6669,0.6683,0.6702,0.6717,0.6742,0.6745,0.6743,0.6735,0.6725,0.6732,0.6796,0.6747,0.6747,0.6748,0.6748,0.6748,0.645,0.645,0.6475,0.6487,0.6503,0.6518,0.6522,0.6544,0.6555,0.6574,0.6593,0.6604,0.6627,0.6655,0.6669,0.6678,0.669,0.6687,0.6686,0.6685,0.6682,0.6723,0.6681,0.6681,0.6682,0.6682,0.6682,0,0.6396,0.6414,0.6425,0.6448,0.6458,0.648,0.65,0.6507,0.6516,0.6535,0.6548,0.6562,0.6576,0.6604,0.662,0.6622,0.6634,0.6625,0.6626,0.6629,0.6669,0.667,0.6616,0.6616,0.6616,0.6616,0.6616,0.6616,0.637,0.6373,0.6391,0.6402,0.642,0.6431,0.644,0.6455,0.6471,0.6486,0.6498,0.6516,0.6539,0.6557,0.6571,0.6579,0.6584,0.6572,0.6583,0.662,0.6626,0.6632,0.6633,0.6573,0.6572,0.6543,0.6543,0.6543]},{"header":{"parameterUnit":"m.s-1","parameterCategory":1,"la1":30.2991,"la2":30.254,"lo1":-89.0895,"lo2":-89.0444,"dy":0.0017,"dx":0.0017,"nx":28,"ny":28,"refTime":"2025-05-26T09:00:00:Z","depth":0,"parameterNumber":3,"parameterNumberName":"V-component_of_WINDS"},"data":[0,0,0,0,0,0,0,0,0,0,0,0,0,0,0,0,0,0,0,0,0,0,0,0,0,0,0,0,0,0,0,0,0,0,0,0,0,0,0,0,0,0,0,0,0,0,0,0,0,0,0,0,0,0,0,0,0,0,3.4479,3.4479,0,3.4481,3.4481,3.4481,3.4511,3.4512,3.4513,3.4513,3.4512,3.4512,3.4511,0,0,0,0,0,0,0,0,0,0,0,0,0,3.4498,3.4498,3.4479,3.4479,3.4479,3.4481,3.4481,3.4481,3.4511,3.4512,3.4513,3.4514,3.4513,3.4512,3.4511,0,0,0,0,0,0,0,0,0,0,0,0,0,3.4494,3.4498,3.4479,3.4494,3.4496,3.4481,3.4481,3.4481,3.4511,3.4512,3.4513,3.4514,3.4513,3.4512,3.4511,3.4481,0,0,3.4507,3.4507,0,0,0,0,0,0,0,0,3.4494,3.4493,3.4492,3.4493,3.4495,3.4497,3.4488,3.4481,3.4511,3.4505,3.4513,3.4515,3.4506,3.4506,3.4503,3.4481,3.4481,3.4507,3.4506,3.4506,3.4506,0,0,0,0,0,0,0,3.4495,3.4493,3.448,3.4492,3.4494,3.45,3.4501,3.4487,3.4499,3.4506,3.4508,3.4508,3.4507,3.4504,3.4504,3.4481,3.4507,3.4506,3.4505,3.4505,3.4433,3.4432,0,0,0,0,0,0,3.4493,3.4494,3.448,3.448,3.4498,3.4499,3.45,3.4495,3.4499,3.4501,3.4507,3.4509,3.4506,3.4505,3.4504,3.4469,3.4506,3.4505,3.4504,3.4435,3.4433,3.4432,0,0,0,0,0,0,3.4494,3.4492,3.448,3.4487,3.4486,3.4497,3.4492,3.4495,3.4492,3.45,3.4502,3.4502,3.4507,3.4505,3.4486,3.4469,3.4504,3.4503,3.4436,3.4434,3.4432,3.4399,0,0,0,0,0,0,3.4494,3.4492,3.4481,3.4487,3.4486,3.4463,3.4491,3.4494,3.449,3.4494,3.4496,3.4498,3.4507,3.4488,3.4485,3.4468,3.4503,3.4438,3.4435,3.4433,3.4402,3.4396,3.4391,0,0,0,0,0,3.4495,3.4471,3.448,3.4478,3.4473,3.4462,3.4461,3.4474,3.4489,3.4478,3.4483,3.4498,3.4472,3.4486,3.4483,3.4465,3.4439,3.4436,3.4433,3.4404,3.4397,3.4392,0,0,0,0,0,0,3.4461,3.4472,3.4482,3.446,3.446,3.4467,3.4454,3.4467,3.4461,3.4464,3.4479,3.448,3.4458,3.446,3.4476,3.4437,3.4458,3.4454,3.4436,3.443,3.4425,3.4425,3.4502,0,0,0,0,0,3.4451,3.4443,3.4452,3.4431,3.4431,3.4442,3.4438,3.4448,3.4448,3.4448,3.4452,3.4451,3.4442,3.4436,3.4429,3.4402,3.4403,3.4389,3.4384,3.438,3.4376,3.4362,3.4356,3.4423,3.4423,3.4423,0,0,3.4431,3.4435,3.4429,3.4425,3.4426,3.4416,3.4442,3.443,3.4422,3.4446,3.4429,3.4431,3.4431,3.4408,3.4398,3.4409,3.4358,3.4376,3.4373,3.4371,3.4358,3.4352,3.4346,3.4421,3.4421,3.4421,0,0,3.4388,3.4391,3.4374,3.4375,3.4377,3.4385,3.438,3.4386,3.4389,3.4372,3.439,3.438,3.4366,3.4365,3.4362,3.432,3.4333,3.4317,3.429,3.4276,3.4271,3.4266,3.4251,3.4245,3.4314,3.4314,3.4314,0,3.4361,3.4348,3.4363,3.435,3.4348,3.437,3.4353,3.4352,3.4351,3.4349,3.4361,3.4344,3.4345,3.4322,3.4312,3.4309,3.4304,3.4316,3.4271,3.4266,3.4262,3.4248,3.4242,3.4312,3.4312,3.4312,3.4312,0,3.4315,3.4305,3.4291,3.4291,3.4287,3.4272,3.4285,3.4278,3.4289,3.4295,3.4277,3.428,3.4274,3.4269,3.4279,3.4248,3.4254,3.4268,3.429,3.4254,3.424,3.4235,3.4309,3.431,3.431,3.4311,0,0,3.425,3.426,3.4254,3.4255,3.4259,3.4251,3.4237,3.4232,3.4226,3.4225,3.4213,3.42,3.4214,3.4211,3.4221,3.4208,3.4174,3.4224,3.4224,3.4214,3.414,3.4129,3.4123,3.4183,3.4182,3.4181,3.414,0,3.4209,3.4186,3.42,3.4175,3.4166,3.4187,3.4174,3.4175,3.418,3.4173,3.4179,3.417,3.4188,3.4187,3.4176,3.4181,3.4159,3.4184,3.4171,3.4171,3.4171,3.4116,3.4104,3.4065,3.4135,3.4134,3.4133,0,3.4157,3.4155,3.4129,3.4135,3.4132,3.4121,3.4118,3.411,3.4112,3.4116,3.4114,3.4126,3.4112,3.4134,3.4114,3.4131,3.4126,3.4128,3.4127,3.4126,3.415,3.4113,3.4052,3.4046,3.4125,3.4126,3.4127,0,3.4112,3.4103,3.4086,3.4086,3.4093,3.4084,3.4086,3.4089,3.4085,3.4082,3.408,3.4074,3.4071,3.4067,3.4077,3.4092,3.4056,3.4079,3.4059,3.4059,3.405,3.405,3.3988,3.4048,3.4048,3.4048,3.4048,0,3.4064,3.4048,3.4066,3.4056,3.4038,3.4053,3.4035,3.4039,3.4041,3.4032,3.4049,3.4039,3.4054,3.4046,3.4054,3.4037,3.4035,3.4038,3.404,3.4036,3.4036,3.4033,3.4036,3.4046,3.4047,3.4047,3.4047,0,3.4011,3.4023,3.4006,3.4014,3.4016,3.4002,3.4009,3.3999,3.4007,3.3994,3.3992,3.4003,3.3994,3.4005,3.3996,3.4002,3.3978,3.3984,3.3978,3.398,3.396,3.3961,3.3893,3.3885,3.395,3.3949,3.3949,0,3.3979,3.3967,3.3974,3.397,3.3972,3.3964,3.396,3.3975,3.3971,3.3972,3.3962,3.3955,3.395,3.3935,3.3941,3.3935,3.3941,3.3918,3.394,3.3937,3.3941,3.3941,3.394,3.3913,3.3912,3.3912,3.3911,0,3.3922,3.3929,3.3924,3.3921,3.3916,3.3915,3.3914,3.3909,3.3924,3.3919,3.391,3.3907,3.3899,3.3892,3.3887,3.3889,3.3902,3.3904,3.3899,3.3895,3.3892,3.3893,3.3965,3.3905,3.3906,3.3906,3.3907,3.3907,3.3878,3.3868,3.3872,3.3866,3.3868,3.3867,3.3859,3.3865,3.3859,3.3855,3.3864,3.3853,3.3855,3.3851,3.3851,3.3842,3.3852,3.3845,3.3843,3.3841,3.3838,3.3893,3.3841,3.3842,3.3842,3.3842,3.3842,0,3.3822,3.3825,3.382,3.3819,3.3814,3.3829,3.3829,3.3823,3.3814,3.3815,3.381,3.3801,3.3794,3.38,3.3795,3.3787,3.3793,3.3785,3.3785,3.3785,3.383,3.3834,3.378,3.378,3.378,3.378,3.378,3.378,3.3792,3.3776,3.3783,3.3768,3.3772,3.3763,3.3762,3.3761,3.3762,3.3751,3.3746,3.375,3.3753,3.3748,3.3742,3.3744,3.3741,3.3731,3.3735,3.3776,3.3782,3.3788,3.3792,3.373,3.373,3.3691,3.3691,3.3691]}]]